星链-5075 (STARLINK-5075 )

导读

STARLINK-5075是美国SpaceX公司“星链”星座的一员,于2022年10月5日发射升空,属于星链低轨互联网卫星群。作为全球规模最大低轨卫星星座组成部分,它运行在近地轨道,为全球偏远地区、移动场景提供高速低延迟互联网接入,同时助力实现手机直连卫星服务,不过该卫星也和其他星链卫星一起,引发了太空轨道安全等方面的争议。

基本信息
目录编号:
53990
目录名称:
STARLINK-5075
国际标识:
2022-125AC
轨道中心:
EARTH
卫星名称:
星链-5075
卫星全名:
星链-5075 (STARLINK-5075 )
卫星状态:
已陨落 最后检测时间 2024-08-22
发射日期:
2022-10-05 UTC
国别 :
美国 (US)
星等 :
--
该卫星已列入 空间交会检测服务 Space Conjunction Data Service (SCDS) ,当前飞行风险评估等级: 无高风险
轨道信息
数据来源 国际轨道数据
星历时间: 2024-08-22T17:34:20+0800
轨道信息已过期751天
半长轴: 6552.289km
偏心率: 0.0003025
轨道倾角: 53.198°
近地点辐角 264.407°
升交点赤经 208.743°
平近点角 177.536°
近地点: 172.171km
远地点: 176.137km
周期: 87.973分钟
每日圈数: 16.368663
详细信息
固有亮度:
5
最大亮度:
2.5
卫星平台:
Starlink v1.5
覆盖范围:
全球
运营商:
太空探索技术公司
运营商所在国:
美国
制造商(研发单位):
太空探索技术公司
制造商所在国:
美国
使用方式:
暂无
卫星简介
星链(Starlink)计划是由太空探索技术公司(SpaceX)提出的一个巨型低轨卫星互联网星座项目,计划在2019年至2024年间在太空搭建由约1.2万颗卫星组成的“星链”网络,其中1584颗将部署在地球上空550千米处的近地轨道,并从2020年开始工作。该卫星仍在工作。
与全量物体交会距离演化趋势
与全量物体交会风险概率演化趋势